UAL128 KEYW-KTPA

Flight info

Callsign UAL128
Flight time 0h 41m
Altitude 30000
Route BUFTT1 GUFFS FERAL BLFRG3
Aircraft B737/M-SDE2E3FGHIRWXY/LB1

Departure

Time 2026-05-04 00:41
Airport Key West International Airport (KEYW)

Arrival

Time 2026-05-04 01:22
Airport Tampa International Airport (KTPA)
Time Latitude Longitude Altitude Speed Heading
2026-05-04 00:27 24.55475 -81.75485 8 ft 0 kts 226°
2026-05-04 00:34 24.55468 -81.75506 10 ft 6 kts 262°
2026-05-04 00:35 24.55476 -81.75566 9 ft 11 kts 284°
2026-05-04 00:35 24.55526 -81.75611 9 ft 10 kts 281°
2026-05-04 00:35 24.55529 -81.75687 10 ft 10 kts 272°
2026-05-04 00:35 24.55528 -81.75760 8 ft 10 kts 269°
2026-05-04 00:36 24.55528 -81.75832 10 ft 9 kts 270°
2026-05-04 00:36 24.55527 -81.75902 8 ft 9 kts 270°
2026-05-04 00:36 24.55526 -81.75969 8 ft 9 kts 269°
2026-05-04 00:36 24.55525 -81.76035 8 ft 9 kts 269°
2026-05-04 00:37 24.55523 -81.76099 8 ft 8 kts 268°
2026-05-04 00:37 24.55523 -81.76163 8 ft 9 kts 270°
2026-05-04 00:37 24.55523 -81.76242 8 ft 11 kts 269°
2026-05-04 00:37 24.55523 -81.76324 8 ft 11 kts 269°
2026-05-04 00:38 24.55522 -81.76404 8 ft 10 kts 269°
2026-05-04 00:38 24.55521 -81.76490 8 ft 15 kts 269°
2026-05-04 00:38 24.55521 -81.76605 8 ft 15 kts 277°
2026-05-04 00:38 24.55596 -81.76641 7 ft 14 kts 44°
2026-05-04 00:39 24.55606 -81.76592 7 ft 0 kts 90°
2026-05-04 00:40 24.55607 -81.76538 8 ft 39 kts 89°
2026-05-04 00:40 24.55619 -81.75873 9 ft 132 kts 89°
2026-05-04 00:41 24.55653 -81.74678 498 ft 164 kts 85°
2026-05-04 00:41 24.55732 -81.73478 1769 ft 151 kts 88°
2026-05-04 00:41 24.55782 -81.72288 2557 ft 169 kts 70°
2026-05-04 00:41 24.56618 -81.71260 2930 ft 203 kts 22°
2026-05-04 00:42 24.58077 -81.70958 3276 ft 231 kts 359°
2026-05-04 00:42 24.59726 -81.71032 3978 ft 243 kts 354°
2026-05-04 00:42 24.61457 -81.71170 4618 ft 261 kts 353°
2026-05-04 00:42 24.63335 -81.71314 5305 ft 279 kts 354°
2026-05-04 00:43 24.65296 -81.71444 6390 ft 284 kts 354°
2026-05-04 00:43 24.67284 -81.71563 7493 ft 289 kts 354°
2026-05-04 00:43 24.69308 -81.71681 8568 ft 293 kts 354°
2026-05-04 00:43 24.71361 -81.71604 9578 ft 302 kts 11°
2026-05-04 00:44 24.73269 -81.70587 10529 ft 314 kts 36°
2026-05-04 00:44 24.74919 -81.68859 10921 ft 343 kts 45°
2026-05-04 00:44 24.76569 -81.66854 11422 ft 361 kts 47°
2026-05-04 00:44 24.78262 -81.64779 12265 ft 367 kts 46°
2026-05-04 00:45 24.79998 -81.62708 13183 ft 370 kts 45°
2026-05-04 00:45 24.81775 -81.60624 13999 ft 376 kts 45°
2026-05-04 00:45 24.83813 -81.58809 14755 ft 380 kts 26°
2026-05-04 00:45 24.86261 -81.57728 15580 ft 381 kts 16°
2026-05-04 00:46 24.88791 -81.56817 16371 ft 385 kts 14°
2026-05-04 00:46 24.91373 -81.55927 17086 ft 392 kts 14°
2026-05-04 00:46 24.93986 -81.55026 17817 ft 397 kts 14°
2026-05-04 00:46 24.96642 -81.54099 18533 ft 402 kts 14°
2026-05-04 00:47 24.99319 -81.53152 19223 ft 407 kts 14°
2026-05-04 00:47 25.02030 -81.52182 19911 ft 412 kts 14°
2026-05-04 00:47 25.04771 -81.51194 20550 ft 417 kts 14°
2026-05-04 00:47 25.07544 -81.50192 21173 ft 422 kts 14°
2026-05-04 00:48 25.10348 -81.49176 21756 ft 427 kts 14°
2026-05-04 00:48 25.13184 -81.48148 22332 ft 431 kts 14°
2026-05-04 00:48 25.16051 -81.47108 22885 ft 436 kts 13°
2026-05-04 00:48 25.18947 -81.46058 23436 ft 440 kts 13°
2026-05-04 00:49 25.21870 -81.44997 23950 ft 444 kts 13°
2026-05-04 00:49 25.24816 -81.43927 24431 ft 448 kts 13°
2026-05-04 00:49 25.27791 -81.42846 24903 ft 452 kts 13°
2026-05-04 00:49 25.30794 -81.41754 25370 ft 456 kts 13°
2026-05-04 00:50 25.33821 -81.40653 25817 ft 461 kts 13°
2026-05-04 00:50 25.36876 -81.39541 26281 ft 464 kts 13°
2026-05-04 00:50 25.39952 -81.38421 26733 ft 467 kts 13°
2026-05-04 00:50 25.43054 -81.37292 27171 ft 471 kts 13°
2026-05-04 00:51 25.46208 -81.36454 27647 ft 461 kts 358°
2026-05-04 00:51 25.49347 -81.36627 28284 ft 444 kts 342°
2026-05-04 00:51 25.52239 -81.37590 28982 ft 427 kts 328°
2026-05-04 00:51 25.54796 -81.39166 29635 ft 418 kts 321°
2026-05-04 00:52 25.57227 -81.40853 30000 ft 419 kts 320°
2026-05-04 00:52 25.62126 -81.44327 30037 ft 417 kts 320°
2026-05-04 00:53 25.67041 -81.47756 30053 ft 418 kts 320°
2026-05-04 00:53 25.71978 -81.51158 30050 ft 418 kts 320°
2026-05-04 00:54 25.76928 -81.54562 30050 ft 418 kts 320°
2026-05-04 00:54 25.81870 -81.57965 30055 ft 418 kts 320°
2026-05-04 00:55 25.86812 -81.61370 30058 ft 418 kts 321°
2026-05-04 00:55 25.89469 -81.62773 30044 ft 433 kts 336°
2026-05-04 00:55 25.92414 -81.63562 30066 ft 437 kts 340°
2026-05-04 00:56 25.98401 -81.64864 30057 ft 439 kts 341°
2026-05-04 00:56 26.04386 -81.66161 30055 ft 438 kts 341°
2026-05-04 00:57 26.10346 -81.67520 30056 ft 437 kts 340°
2026-05-04 00:57 26.16298 -81.68907 30050 ft 437 kts 340°
2026-05-04 00:58 26.22254 -81.70299 30046 ft 437 kts 340°
2026-05-04 00:58 26.28213 -81.71692 30046 ft 437 kts 340°
2026-05-04 00:59 26.34167 -81.73085 30055 ft 437 kts 340°
2026-05-04 00:59 26.40119 -81.74478 30054 ft 437 kts 340°
2026-05-04 01:00 26.46041 -81.75866 30063 ft 438 kts 340°
2026-05-04 01:00 26.52013 -81.77228 30064 ft 441 kts 343°
2026-05-04 01:01 26.58180 -81.78043 30069 ft 445 kts 347°
2026-05-04 01:01 26.64306 -81.78682 30058 ft 445 kts 347°
2026-05-04 01:01 26.67391 -81.79018 29695 ft 446 kts 346°
2026-05-04 01:02 26.70462 -81.79363 29205 ft 442 kts 346°
2026-05-04 01:02 26.73502 -81.79715 28670 ft 436 kts 346°
2026-05-04 01:02 26.76505 -81.80067 28125 ft 432 kts 346°
2026-05-04 01:02 26.79480 -81.80420 27583 ft 427 kts 346°
2026-05-04 01:03 26.82424 -81.80770 27027 ft 423 kts 346°
2026-05-04 01:03 26.85340 -81.81118 26476 ft 420 kts 346°
2026-05-04 01:03 26.88229 -81.81462 25930 ft 416 kts 346°
2026-05-04 01:03 26.91092 -81.81803 25369 ft 412 kts 346°
2026-05-04 01:04 26.93935 -81.82141 24831 ft 409 kts 346°
2026-05-04 01:04 26.96751 -81.82478 24285 ft 405 kts 346°
2026-05-04 01:04 26.99546 -81.82811 23741 ft 402 kts 346°
2026-05-04 01:04 27.02318 -81.83141 23200 ft 399 kts 346°
2026-05-04 01:05 27.05062 -81.83487 22662 ft 393 kts 342°
2026-05-04 01:05 27.07659 -81.84238 22130 ft 379 kts 332°
2026-05-04 01:05 27.10032 -81.85427 21557 ft 369 kts 323°
2026-05-04 01:05 27.12134 -81.86997 21018 ft 359 kts 316°
2026-05-04 01:06 27.14113 -81.88672 20485 ft 355 kts 315°
2026-05-04 01:06 27.16068 -81.90356 19954 ft 352 kts 315°
2026-05-04 01:06 27.18003 -81.92022 19429 ft 350 kts 315°
2026-05-04 01:06 27.19929 -81.93672 18909 ft 347 kts 315°
2026-05-04 01:07 27.21846 -81.95306 18386 ft 344 kts 315°
2026-05-04 01:07 27.23747 -81.96921 17872 ft 342 kts 315°
2026-05-04 01:07 27.25636 -81.98524 17360 ft 339 kts 315°
2026-05-04 01:07 27.26880 -81.99580 17020 ft 337 kts 316°
2026-05-04 01:08 27.28747 -82.01165 16506 ft 335 kts 316°
2026-05-04 01:08 27.30603 -82.02741 15953 ft 334 kts 316°
2026-05-04 01:08 27.32448 -82.04308 15439 ft 331 kts 316°
2026-05-04 01:08 27.34279 -82.05862 14930 ft 329 kts 316°
2026-05-04 01:09 27.36094 -82.07404 14420 ft 326 kts 317°
2026-05-04 01:09 27.37882 -82.08957 13903 ft 323 kts 315°
2026-05-04 01:09 27.39603 -82.10559 13382 ft 320 kts 315°
2026-05-04 01:09 27.41303 -82.12161 12872 ft 318 kts 315°
2026-05-04 01:10 27.42993 -82.13745 12370 ft 315 kts 315°
2026-05-04 01:10 27.44655 -82.15325 11879 ft 311 kts 313°
2026-05-04 01:10 27.46220 -82.16981 11397 ft 307 kts 312°
2026-05-04 01:10 27.47739 -82.18658 10908 ft 305 kts 312°
2026-05-04 01:11 27.49242 -82.20329 10422 ft 303 kts 312°
2026-05-04 01:11 27.50710 -82.21955 10245 ft 286 kts 313°
2026-05-04 01:11 27.52085 -82.23469 10089 ft 267 kts 313°
2026-05-04 01:11 27.53378 -82.24891 9918 ft 255 kts 313°
2026-05-04 01:12 27.54649 -82.26289 9587 ft 257 kts 313°
2026-05-04 01:12 27.55946 -82.27717 9261 ft 266 kts 314°
2026-05-04 01:12 27.57299 -82.29204 8904 ft 276 kts 314°
2026-05-04 01:12 27.58671 -82.30711 8489 ft 273 kts 315°
2026-05-04 01:13 27.59957 -82.32121 8119 ft 265 kts 315°
2026-05-04 01:13 27.61262 -82.33552 7753 ft 260 kts 315°
2026-05-04 01:13 27.62557 -82.34973 7399 ft 259 kts 315°
2026-05-04 01:13 27.63851 -82.36393 7029 ft 260 kts 315°
2026-05-04 01:14 27.65150 -82.37819 6666 ft 260 kts 315°
2026-05-04 01:14 27.66448 -82.39245 6299 ft 261 kts 315°
2026-05-04 01:14 27.67746 -82.40670 5935 ft 261 kts 316°
2026-05-04 01:14 27.68872 -82.42268 5554 ft 263 kts 294°
2026-05-04 01:15 27.69260 -82.44271 5190 ft 262 kts 272°
2026-05-04 01:15 27.69290 -82.46278 5074 ft 251 kts 275°
2026-05-04 01:15 27.69810 -82.48086 4937 ft 238 kts 306°
2026-05-04 01:15 27.70875 -82.49442 4857 ft 227 kts 319°
2026-05-04 01:16 27.72011 -82.50603 4757 ft 219 kts 321°
2026-05-04 01:16 27.73129 -82.51725 4658 ft 210 kts 321°
2026-05-04 01:16 27.74176 -82.52782 4492 ft 196 kts 324°
2026-05-04 01:16 27.75368 -82.53274 4321 ft 178 kts
2026-05-04 01:17 27.76641 -82.53312 4112 ft 186 kts 355°
2026-05-04 01:17 27.77907 -82.53483 3871 ft 180 kts
2026-05-04 01:17 27.79127 -82.53490 3646 ft 171 kts
2026-05-04 01:17 27.80287 -82.53450 3439 ft 166 kts
2026-05-04 01:18 27.81427 -82.53409 3255 ft 159 kts
2026-05-04 01:18 27.82507 -82.53373 3068 ft 152 kts
2026-05-04 01:18 27.83565 -82.53336 2880 ft 152 kts
2026-05-04 01:18 27.84619 -82.53301 2740 ft 153 kts
2026-05-04 01:19 27.85657 -82.53266 2509 ft 145 kts
2026-05-04 01:19 27.86630 -82.53233 2277 ft 136 kts
2026-05-04 01:19 27.87565 -82.53201 2075 ft 134 kts
2026-05-04 01:19 27.88494 -82.53169 1897 ft 130 kts
2026-05-04 01:20 27.89377 -82.53140 1681 ft 125 kts
2026-05-04 01:20 27.90253 -82.53110 1491 ft 127 kts
2026-05-04 01:20 27.91139 -82.53080 1288 ft 128 kts
2026-05-04 01:20 27.92033 -82.53050 1085 ft 129 kts
2026-05-04 01:21 27.92929 -82.53020 897 ft 129 kts
2026-05-04 01:21 27.93823 -82.52990 697 ft 129 kts
2026-05-04 01:21 27.94714 -82.52959 496 ft 128 kts
2026-05-04 01:21 27.95591 -82.52929 306 ft 128 kts
2026-05-04 01:22 27.96482 -82.52903 96 ft 128 kts
2026-05-04 01:22 27.97311 -82.52874 37 ft 106 kts
2026-05-04 01:22 27.97846 -82.52854 35 ft 48 kts
2026-05-04 01:22 27.98045 -82.52859 37 ft 21 kts 331°
2026-05-04 01:23 27.98029 -82.52972 41 ft 20 kts 185°
2026-05-04 01:23 27.97892 -82.52978 41 ft 19 kts 181°
2026-05-04 01:23 27.97758 -82.52981 41 ft 19 kts 181°
2026-05-04 01:23 27.97630 -82.52986 41 ft 18 kts 182°
2026-05-04 01:24 27.97505 -82.52987 41 ft 18 kts 179°
2026-05-04 01:24 27.97393 -82.53018 41 ft 17 kts 238°
2026-05-04 01:24 27.97378 -82.53113 42 ft 7 kts 270°
2026-05-04 01:24 27.97382 -82.53167 42 ft 7 kts 274°
2026-05-04 01:25 27.97413 -82.53201 42 ft 7 kts 348°
2026-05-04 01:25 27.97453 -82.53195 42 ft 3 kts
2026-05-04 01:25 27.97455 -82.53195 42 ft 0 kts 10°